• In Netherlands
  • List of Countries
  • For 7 days
  • Water Temperature
  • Satellite Maps
  • Weather Map
  • Weather Widgets
  • user-avatar
    Login

    Hourly Weather Prutz

    Today, 30 March, Thursday

    Time Temperature Precipitation Wind Pressure Humidity
    00:00 +2°C° 0 mm 1 mps 637 mmHg 95%
    01:00 -1°C° 0 mm 1 mps 636 mmHg 95%
    02:00 -1°C° 0 mm 1 mps 636 mmHg 95%
    03:00 -1°C° 0 mm 1 mps 636 mmHg 94%
    04:00 -1°C° 0 mm 1 mps 636 mmHg 93%
    05:00 0°C° 0 mm 1 mps 636 mmHg 91%
    06:00 +1°C° 0 mm 1 mps 637 mmHg 88%
    07:00 +4°C° 0 mm 1 mps 638 mmHg 84%
    08:00 +6°C° 0 mm 1 mps 639 mmHg 83%
    09:00 +7°C° 0 mm 0 mps 639 mmHg 82%
    10:00 +9°C° 0 mm 0 mps 640 mmHg 81%
    11:00 +10°C° 0 mm 0 mps 640 mmHg 77%
    12:00 +11°C° 0 mm 0 mps 640 mmHg 73%
    13:00 +13°C° 0 mm 1 mps 640 mmHg 69%
    14:00 +13°C° 0 mm 1 mps 640 mmHg 69%
    15:00 +13°C° 0 mm 1 mps 640 mmHg 69%
    16:00 +12°C° 0 mm 1 mps 639 mmHg 69%
    17:00 +9°C° 0 mm 1 mps 638 mmHg 76%
    18:00 +7°C° 0 mm 1 mps 637 mmHg 84%
    19:00 +4°C° 0 mm 1 mps 636 mmHg 91%
    20:00 +4°C° 0 mm 1 mps 636 mmHg 91%
    21:00 +4°C° 0 mm 1 mps 637 mmHg 92%
    22:00 +3°C° 0 mm 2 mps 637 mmHg 92%
    23:00 +3°C° 0 mm 2 mps 637 mmHg 92%

    Tomorrow, 31 March, Friday

    Time Temperature Precipitation Wind Pressure Humidity
    00:00 +3°C° 0 mm 2 mps 637 mmHg 92%
    01:00 +3°C° 0 mm 2 mps 637 mmHg 93%
    02:00 +3°C° 0 mm 2 mps 637 mmHg 93%
    03:00 +2°C° 0 mm 2 mps 636 mmHg 93%
    04:00 +2°C° 0 mm 2 mps 636 mmHg 93%
    05:00 +3°C° 0 mm 2 mps 636 mmHg 92%
    06:00 +3°C° 0 mm 2 mps 636 mmHg 91%
    07:00 +3°C° 0 mm 2 mps 636 mmHg 91%
    08:00 +5°C° 0 mm 2 mps 636 mmHg 85%
    09:00 +8°C° 0 mm 2 mps 637 mmHg 78%
    10:00 +10°C° 0 mm 2 mps 637 mmHg 72%
    11:00 +12°C° 0 mm 2 mps 637 mmHg 68%
    12:00 +13°C° 0 mm 2 mps 637 mmHg 64%
    13:00 +14°C° 0 mm 2 mps 637 mmHg 60%
    14:00 +14°C° 0 mm 2 mps 636 mmHg 62%
    15:00 +13°C° 0 mm 2 mps 636 mmHg 63%
    16:00 +13°C° 0 mm 2 mps 635 mmHg 65%
    17:00 +9°C° 0.2 mm 2 mps 634 mmHg 74%
    18:00 +8°C° 0.2 mm 1 mps 633 mmHg 84%
    19:00 +5°C° 0.2 mm 1 mps 632 mmHg 93%
    20:00 +4°C° 0 mm 2 mps 632 mmHg 94%
    21:00 +4°C° 0 mm 2 mps 632 mmHg 94%
    22:00 +4°C° 0 mm 2 mps 632 mmHg 94%
    23:00 +3°C° 0 mm 2 mps 632 mmHg 94%

    Day after tomorrow, 1 April, Saturday

    Time Temperature Precipitation Wind Pressure Humidity
    00:00 +3°C° 0 mm 2 mps 632 mmHg 94%
    01:00 +3°C° 0 mm 2 mps 632 mmHg 94%
    02:00 +2°C° 0 mm 2 mps 631 mmHg 93%
    03:00 +2°C° 0 mm 2 mps 631 mmHg 93%
    04:00 +2°C° 0 mm 2 mps 630 mmHg 93%
    05:00 +2°C° 0 mm 2 mps 630 mmHg 91%
    06:00 +3°C° 0 mm 2 mps 630 mmHg 90%
    07:00 +3°C° 0 mm 2 mps 630 mmHg 88%
    08:00 +5°C° 0 mm 2 mps 631 mmHg 80%
    09:00 +7°C° 0 mm 2 mps 632 mmHg 72%
    10:00 +9°C° 0 mm 2 mps 632 mmHg 64%
    11:00 +10°C° 0 mm 2 mps 632 mmHg 61%
    12:00 +10°C° 0 mm 2 mps 632 mmHg 57%
    13:00 +12°C° 0 mm 2 mps 632 mmHg 54%
    14:00 +10°C° 0.4 mm 2 mps 632 mmHg 59%
    15:00 +10°C° 0.4 mm 2 mps 631 mmHg 63%
    16:00 +9°C° 0.4 mm 2 mps 631 mmHg 68%
    17:00 +8°C° 0.6 mm 2 mps 631 mmHg 76%
    18:00 +7°C° 0.6 mm 1 mps 630 mmHg 84%
    19:00 +5°C° 0.6 mm 1 mps 630 mmHg 93%
    20:00 +4°C° 0.4 mm 1 mps 630 mmHg 93%
    21:00 +4°C° 0.4 mm 1 mps 630 mmHg 94%
    22:00 +4°C° 0.4 mm 1 mps 631 mmHg 94%
    23:00 +4°C° 0.1 mm 1 mps 631 mmHg 94%

    2 April, Sunday

    Time Temperature Precipitation Wind Pressure Humidity
    00:00 +4°C° 0.1 mm 1 mps 631 mmHg 94%
    01:00 +4°C° 0.1 mm 1 mps 631 mmHg 94%
    02:00 +3°C° 0 mm 1 mps 631 mmHg 94%
    03:00 +3°C° 0 mm 1 mps 631 mmHg 94%
    04:00 +3°C° 0 mm 1 mps 631 mmHg 93%
    05:00 +3°C° 0 mm 1 mps 631 mmHg 91%
    06:00 +3°C° 0 mm 0 mps 632 mmHg 89%
    07:00 +3°C° 0 mm 0 mps 632 mmHg 86%
    08:00 +5°C° 0 mm 0 mps 633 mmHg 79%
    09:00 +8°C° 0 mm 1 mps 634 mmHg 72%
    10:00 +10°C° 0 mm 1 mps 634 mmHg 65%
    11:00 +10°C° 0.1 mm 1 mps 634 mmHg 65%
    12:00 +10°C° 0.1 mm 1 mps 634 mmHg 65%
    13:00 +10°C° 0.1 mm 1 mps 634 mmHg 65%
    14:00 +10°C° 0.3 mm 1 mps 634 mmHg 69%
    15:00 +10°C° 0.3 mm 1 mps 634 mmHg 72%
    16:00 +9°C° 0.3 mm 1 mps 634 mmHg 76%
    17:00 +8°C° 0.2 mm 1 mps 634 mmHg 82%
    18:00 +6°C° 0.2 mm 1 mps 633 mmHg 89%
    19:00 +5°C° 0.2 mm 1 mps 633 mmHg 95%
    20:00 +5°C° 0.1 mm 1 mps 634 mmHg 96%
    21:00 +3°C° 0.1 mm 0 mps 634 mmHg 96%
    22:00 +3°C° 0.1 mm 0 mps 634 mmHg 97%
    23:00 +3°C° 0.2 mm 0 mps 634 mmHg 97%

    3 April, Monday

    Time Temperature Precipitation Wind Pressure Humidity
    00:00 +3°C° 0.2 mm 0 mps 634 mmHg 97%
    01:00 +3°C° 0.2 mm 0 mps 634 mmHg 97%
    02:00 +4°C° 0.1 mm 1 mps 634 mmHg 97%
    03:00 +4°C° 0.1 mm 1 mps 634 mmHg 97%
    04:00 +4°C° 0.1 mm 1 mps 634 mmHg 97%
    05:00 +4°C° 0 mm 1 mps 634 mmHg 96%
    06:00 +4°C° 0 mm 1 mps 634 mmHg 95%
    07:00 +4°C° 0 mm 1 mps 635 mmHg 94%
    08:00 +5°C° 0 mm 1 mps 635 mmHg 90%
    09:00 +6°C° 0 mm 1 mps 635 mmHg 86%
    10:00 +7°C° 0 mm 1 mps 636 mmHg 82%
    11:00 +7°C° 0.1 mm 2 mps 636 mmHg 80%
    12:00 +7°C° 0.1 mm 2 mps 635 mmHg 78%
    13:00 +8°C° 0.1 mm 2 mps 635 mmHg 77%
    14:00 +8°C° 0.2 mm 2 mps 635 mmHg 78%
    15:00 +7°C° 0.2 mm 2 mps 635 mmHg 80%
    16:00 +7°C° 0.2 mm 2 mps 634 mmHg 82%
    17:00 +6°C° 0.3 mm 2 mps 634 mmHg 87%
    18:00 +5°C° 0.3 mm 2 mps 634 mmHg 91%
    19:00 +4°C° 0.3 mm 2 mps 634 mmHg 96%
    20:00 +5°C° 0.2 mm 1 mps 634 mmHg 96%
    21:00 +4°C° 0.2 mm 1 mps 634 mmHg 96%
    22:00 +4°C° 0.2 mm 1 mps 635 mmHg 96%
    23:00 +4°C° 0.1 mm 1 mps 634 mmHg 97%

    4 April, Tuesday

    Time Temperature Precipitation Wind Pressure Humidity
    00:00 +3°C° 0.1 mm 1 mps 634 mmHg 97%
    01:00 +3°C° 0.1 mm 1 mps 634 mmHg 97%
    02:00 +3°C° 0 mm 1 mps 634 mmHg 97%
    03:00 +2°C° 0 mm 1 mps 634 mmHg 97%
    04:00 +2°C° 0 mm 1 mps 634 mmHg 96%
    05:00 +2°C° 0 mm 1 mps 634 mmHg 95%
    06:00 +2°C° 0 mm 1 mps 634 mmHg 93%
    07:00 +2°C° 0 mm 1 mps 634 mmHg 91%
    08:00 +3°C° 0 mm 1 mps 635 mmHg 85%
    09:00 +4°C° 0 mm 1 mps 635 mmHg 78%
    10:00 +5°C° 0 mm 1 mps 635 mmHg 71%
    11:00 +5°C° 0.1 mm 2 mps 635 mmHg 70%
    12:00 +5°C° 0.1 mm 2 mps 635 mmHg 69%
    13:00 +6°C° 0.1 mm 2 mps 635 mmHg 68%
    14:00 +5°C° 0.2 mm 2 mps 635 mmHg 71%
    15:00 +5°C° 0.2 mm 2 mps 635 mmHg 73%
    16:00 +5°C° 0.2 mm 2 mps 634 mmHg 75%
    17:00 +3°C° 0.2 mm 2 mps 634 mmHg 81%
    18:00 +2°C° 0.2 mm 2 mps 634 mmHg 86%
    19:00 +2°C° 0.2 mm 1 mps 634 mmHg 92%
    20:00 +1°C° 0.2 mm 1 mps 634 mmHg 92%
    21:00 +1°C° 0.2 mm 1 mps 635 mmHg 93%
    22:00 +1°C° 0.2 mm 1 mps 635 mmHg 93%
    23:00 0°C° 0.1 mm 1 mps 635 mmHg 93%
    Show more